This is the latest recevied weather packets stored in our database for station/object IR4UCA. If no packets are shown the sender has not sent any weather packets the latest 10 day(s).
| Time | Temp. | Humidity | Pressure | Rain* | Wind** | Luminosity | Snow |
|---|---|---|---|---|---|---|---|
| 1777580983 | 13.33° C | 49% | 1025.1 hPa | 0 mm | - | - | - |
| 1777580384 | 13.33° C | 48% | 1025.1 hPa | 0 mm | - | - | - |
| 1777579783 | 13.33° C | 47% | 1024.9 hPa | 0 mm | - | - | - |
| 1777579184 | 13.33° C | 47% | 1024.8 hPa | 0 mm | - | - | - |
| 1777578583 | 13.33° C | 47% | 1024.8 hPa | 0 mm | - | - | - |
| 1777577983 | 13.33° C | 47% | 1024.6 hPa | 0 mm | - | - | - |
| 1777577385 | 13.33° C | 47% | 1024.5 hPa | 0 mm | - | - | - |
| 1777576783 | 13.89° C | 48% | 1024.5 hPa | 0 mm | - | - | - |
| 1777576183 | 13.89° C | 48% | 1024.3 hPa | 0 mm | - | - | - |
| 1777575583 | 14.44° C | 48% | 1024.1 hPa | 0 mm | - | - | - |
| 1777574984 | 14.44° C | 48% | 1024 hPa | 0 mm | - | - | - |
| 1777574384 | 15° C | 47% | 1023.8 hPa | 0 mm | - | - | - |
| 1777573783 | 15° C | 46% | 1023.6 hPa | 0 mm | - | - | - |
| 1777573184 | 15.56° C | 44% | 1023.4 hPa | 0 mm | - | - | - |
| 1777572584 | 15.56° C | 36% | 1023.2 hPa | 0 mm | - | - | - |
| 1777571983 | 15.56° C | 32% | 1023.2 hPa | 0 mm | - | - | - |
| 1777570783 | 16.11° C | 38% | 1023.1 hPa | 0 mm | - | - | - |
| 1777570183 | 16.67° C | 39% | 1022.9 hPa | 0 mm | - | - | - |
| 1777569583 | 16.67° C | 40% | 1022.9 hPa | 0 mm | - | - | - |
| 1777568983 | 16.67° C | 40% | 1023 hPa | 0 mm | - | - | - |
| 1777568383 | 16.67° C | 39% | 1023 hPa | 0 mm | - | - | - |
| 1777567784 | 17.22° C | 39% | 1022.9 hPa | 0 mm | - | - | - |
| 1777567184 | 17.22° C | 38% | 1023 hPa | 0 mm | - | - | - |
| 1777566583 | 17.22° C | 38% | 1022.9 hPa | 0 mm | - | - | - |
| 1777565983 | 17.22° C | 37% | 1022.8 hPa | 0 mm | - | - | - |
* Rain latest hour (hover to see other rain measurements)
** Current wind speed in m/s (hover to see current wind gust speed)